Location: Shepherdstown, WV
(39.4326°N, 77.8042°W)
Time: 05:07:06
(UTC-04:00)

Vanguard 1 - Pass Details

Date: 08 August 2021
Orbit: 652 x 3831 km, 34.3° (Epoch: 24 September)

Event Time Altitude Azimuth Distance (km) Brightness Sun altitude
Rises 08:58:43 0° 228° (SW) 3,415 12.5 29.6°
Reaches altitude 10° 09:01:50 10° 215° (SW) 2,239 11.7 30.2°
Maximum altitude 09:05:42 24° 161° (SSE) 1,362 11.3 31.0°
Drops below altitude 10° 09:09:18 10° 106° (ESE) 2,062 13.2 31.6°
Sets 09:12:02 0° 91° (E) 3,076 13.7 32.2°
